When you browse on this site, cookies collect data to enhance your experience and personalize the content and advertising you see.
Visit our Privacy Policy to learn more. By continuing to use the site, you agree to this use of cookies and data.
  • In Italy
  • List of Countries
  • For 7 days
  • Water Temperature
  • Satellite Maps
  • Weather Map
  • Weather Widgets
  • user-avatar
    Login

    Hourly Weather Babruysk

    Today, 26 May, Sunday

    Time Temperature Precipitation Wind Pressure Humidity
    00:00 +13°C° 0 mm 2 mps 743 mmHg 91%
    01:00 +13°C° 0 mm 2 mps 743 mmHg 92%
    02:00 +12°C° 0 mm 2 mps 743 mmHg 93%
    03:00 +12°C° 0 mm 2 mps 743 mmHg 93%
    04:00 +12°C° 0 mm 2 mps 743 mmHg 93%
    05:00 +12°C° 0 mm 2 mps 744 mmHg 93%
    06:00 +13°C° 0 mm 2 mps 744 mmHg 86%
    07:00 +14°C° 0 mm 3 mps 744 mmHg 78%
    08:00 +16°C° 0 mm 3 mps 744 mmHg 71%
    09:00 +17°C° 0 mm 4 mps 744 mmHg 65%
    10:00 +18°C° 0 mm 4 mps 744 mmHg 58%
    11:00 +19°C° 0 mm 4 mps 744 mmHg 52%
    12:00 +19°C° 0 mm 5 mps 744 mmHg 51%
    13:00 +20°C° 0 mm 5 mps 744 mmHg 50%
    14:00 +20°C° 0 mm 5 mps 744 mmHg 49%
    15:00 +19°C° 0 mm 5 mps 744 mmHg 53%
    16:00 +19°C° 0 mm 5 mps 744 mmHg 56%
    17:00 +17°C° 0 mm 5 mps 744 mmHg 59%
    18:00 +17°C° 0 mm 4 mps 744 mmHg 66%
    19:00 +14°C° 0 mm 3 mps 744 mmHg 73%
    20:00 +12°C° 0 mm 3 mps 744 mmHg 79%
    21:00 +11°C° 0 mm 3 mps 744 mmHg 83%
    22:00 +11°C° 0 mm 3 mps 745 mmHg 87%
    23:00 +10°C° 0 mm 3 mps 745 mmHg 91%

    Tomorrow, 27 May, Monday

    Time Temperature Precipitation Wind Pressure Humidity
    00:00 +9°C° 0 mm 2 mps 745 mmHg 92%
    01:00 +9°C° 0 mm 2 mps 745 mmHg 93%
    02:00 +8°C° 0 mm 2 mps 746 mmHg 93%
    03:00 +9°C° 0 mm 2 mps 746 mmHg 92%
    04:00 +9°C° 0 mm 3 mps 746 mmHg 91%
    05:00 +9°C° 0 mm 3 mps 746 mmHg 90%
    06:00 +12°C° 0 mm 3 mps 746 mmHg 83%
    07:00 +14°C° 0 mm 4 mps 746 mmHg 76%
    08:00 +17°C° 0 mm 4 mps 746 mmHg 69%
    09:00 +19°C° 0 mm 5 mps 746 mmHg 64%
    10:00 +20°C° 0 mm 5 mps 746 mmHg 58%
    11:00 +22°C° 0 mm 5 mps 746 mmHg 53%
    12:00 +23°C° 0 mm 5 mps 746 mmHg 50%
    13:00 +25°C° 0 mm 5 mps 745 mmHg 47%
    14:00 +26°C° 0 mm 5 mps 745 mmHg 45%
    15:00 +26°C° 0 mm 5 mps 745 mmHg 48%
    16:00 +25°C° 0 mm 4 mps 745 mmHg 52%
    17:00 +25°C° 0 mm 3 mps 745 mmHg 56%
    18:00 +22°C° 0.5 mm 3 mps 745 mmHg 66%
    19:00 +20°C° 0.5 mm 2 mps 745 mmHg 75%
    20:00 +18°C° 0.5 mm 2 mps 745 mmHg 85%
    21:00 +18°C° 0.6 mm 2 mps 745 mmHg 88%
    22:00 +17°C° 0.6 mm 2 mps 745 mmHg 91%
    23:00 +16°C° 0.6 mm 2 mps 745 mmHg 94%

    Day after tomorrow, 28 May, Tuesday

    Time Temperature Precipitation Wind Pressure Humidity
    00:00 +16°C° 0.2 mm 2 mps 745 mmHg 94%
    01:00 +16°C° 0.2 mm 2 mps 745 mmHg 95%
    02:00 +16°C° 0.2 mm 2 mps 745 mmHg 95%
    03:00 +16°C° 0 mm 2 mps 745 mmHg 95%
    04:00 +16°C° 0 mm 2 mps 745 mmHg 95%
    05:00 +16°C° 0 mm 2 mps 745 mmHg 95%
    06:00 +18°C° 0 mm 3 mps 745 mmHg 92%
    07:00 +19°C° 0 mm 3 mps 745 mmHg 89%
    08:00 +20°C° 0 mm 3 mps 745 mmHg 85%
    09:00 +22°C° 0 mm 5 mps 745 mmHg 76%
    10:00 +24°C° 0 mm 6 mps 745 mmHg 67%
    11:00 +27°C° 0 mm 7 mps 744 mmHg 57%
    12:00 +28°C° 0.2 mm 7 mps 744 mmHg 57%
    13:00 +28°C° 0.2 mm 7 mps 744 mmHg 56%
    14:00 +28°C° 0.2 mm 7 mps 744 mmHg 55%
    15:00 +28°C° 0.2 mm 7 mps 744 mmHg 55%
    16:00 +28°C° 0.2 mm 6 mps 743 mmHg 55%
    17:00 +27°C° 0.2 mm 6 mps 743 mmHg 55%
    18:00 +26°C° 0 mm 5 mps 743 mmHg 60%
    19:00 +23°C° 0 mm 5 mps 744 mmHg 65%
    20:00 +22°C° 0 mm 4 mps 744 mmHg 70%
    21:00 +21°C° 0 mm 4 mps 744 mmHg 72%
    22:00 +21°C° 0 mm 4 mps 744 mmHg 74%
    23:00 +20°C° 0 mm 4 mps 744 mmHg 75%

    29 May, Wednesday

    Time Temperature Precipitation Wind Pressure Humidity
    00:00 +20°C° 0 mm 4 mps 744 mmHg 76%
    01:00 +19°C° 0 mm 5 mps 744 mmHg 77%
    02:00 +19°C° 0 mm 5 mps 744 mmHg 78%
    03:00 +17°C° 0 mm 5 mps 744 mmHg 75%
    04:00 +17°C° 0 mm 5 mps 744 mmHg 72%
    05:00 +16°C° 0 mm 5 mps 744 mmHg 70%
    06:00 +19°C° 0 mm 5 mps 744 mmHg 67%
    07:00 +20°C° 0 mm 6 mps 744 mmHg 65%
    08:00 +21°C° 0 mm 6 mps 744 mmHg 63%
    09:00 +23°C° 0 mm 7 mps 744 mmHg 60%
    10:00 +24°C° 0 mm 7 mps 744 mmHg 56%
    11:00 +26°C° 0 mm 7 mps 744 mmHg 53%
    12:00 +26°C° 0 mm 7 mps 744 mmHg 54%
    13:00 +26°C° 0 mm 7 mps 744 mmHg 54%
    14:00 +26°C° 0 mm 8 mps 744 mmHg 55%
    15:00 +24°C° 0.4 mm 7 mps 744 mmHg 60%
    16:00 +24°C° 0.4 mm 6 mps 744 mmHg 66%
    17:00 +24°C° 0.4 mm 6 mps 744 mmHg 71%
    18:00 +22°C° 1.2 mm 5 mps 744 mmHg 76%
    19:00 +21°C° 1.2 mm 4 mps 744 mmHg 82%
    20:00 +20°C° 1.2 mm 3 mps 744 mmHg 88%
    21:00 +19°C° 1.1 mm 3 mps 744 mmHg 90%
    22:00 +18°C° 1.1 mm 2 mps 744 mmHg 92%
    23:00 +18°C° 1.1 mm 2 mps 745 mmHg 94%

    30 May, Thursday

    Time Temperature Precipitation Wind Pressure Humidity
    00:00 +17°C° 0 mm 2 mps 745 mmHg 95%
    01:00 +18°C° 0 mm 1 mps 745 mmHg 95%
    02:00 +16°C° 0 mm 1 mps 745 mmHg 96%
    03:00 +16°C° 0 mm 1 mps 746 mmHg 96%
    04:00 +16°C° 0 mm 1 mps 746 mmHg 96%
    05:00 +16°C° 0 mm 2 mps 746 mmHg 97%
    06:00 +17°C° 0.1 mm 2 mps 746 mmHg 95%
    07:00 +17°C° 0.1 mm 2 mps 747 mmHg 93%
    08:00 +18°C° 0.1 mm 2 mps 747 mmHg 92%
    09:00 +19°C° 0 mm 2 mps 747 mmHg 87%
    10:00 +20°C° 0 mm 3 mps 747 mmHg 83%
    11:00 +20°C° 0 mm 3 mps 747 mmHg 78%
    12:00 +20°C° 0 mm 3 mps 748 mmHg 77%
    13:00 +21°C° 0 mm 3 mps 748 mmHg 75%
    14:00 +21°C° 0 mm 3 mps 748 mmHg 74%
    15:00 +20°C° 0 mm 3 mps 748 mmHg 75%
    16:00 +19°C° 0 mm 4 mps 748 mmHg 77%
    17:00 +19°C° 0 mm 4 mps 748 mmHg 78%
    18:00 +18°C° 0 mm 4 mps 749 mmHg 80%
    19:00 +17°C° 0 mm 3 mps 749 mmHg 83%
    20:00 +16°C° 0 mm 3 mps 749 mmHg 85%
    21:00 +14°C° 0 mm 3 mps 750 mmHg 86%
    22:00 +13°C° 0 mm 3 mps 750 mmHg 87%
    23:00 +13°C° 0 mm 3 mps 750 mmHg 89%

    31 May, Friday

    Time Temperature Precipitation Wind Pressure Humidity
    00:00 +12°C° 0 mm 3 mps 750 mmHg 87%
    01:00 +11°C° 0 mm 3 mps 751 mmHg 85%
    02:00 +11°C° 0 mm 3 mps 751 mmHg 83%
    03:00 +11°C° 0 mm 3 mps 751 mmHg 81%
    04:00 +10°C° 0 mm 3 mps 751 mmHg 79%
    05:00 +10°C° 0 mm 3 mps 751 mmHg 77%
    06:00 +11°C° 0 mm 3 mps 751 mmHg 73%
    07:00 +13°C° 0 mm 3 mps 751 mmHg 68%
    08:00 +14°C° 0 mm 3 mps 751 mmHg 64%
    09:00 +16°C° 0 mm 3 mps 751 mmHg 58%
    10:00 +17°C° 0 mm 3 mps 751 mmHg 53%
    11:00 +18°C° 0 mm 3 mps 751 mmHg 47%
    12:00 +19°C° 0 mm 3 mps 751 mmHg 45%
    13:00 +20°C° 0 mm 3 mps 751 mmHg 43%
    14:00 +21°C° 0 mm 3 mps 751 mmHg 41%
    15:00 +21°C° 0 mm 3 mps 751 mmHg 44%
    16:00 +21°C° 0 mm 3 mps 751 mmHg 47%
    17:00 +20°C° 0 mm 4 mps 750 mmHg 50%
    18:00 +19°C° 0 mm 3 mps 751 mmHg 56%
    19:00 +17°C° 0 mm 3 mps 751 mmHg 63%
    20:00 +15°C° 0 mm 2 mps 751 mmHg 70%
    21:00 +13°C° 0 mm 3 mps 752 mmHg 72%
    22:00 +12°C° 0 mm 4 mps 752 mmHg 74%
    23:00 +10°C° 0 mm 5 mps 753 mmHg 76%
    Show more